TimeEST,TemperatureF,Dew PointF,Humidity,Sea Level PressureIn,VisibilityMPH,Wind Direction,Wind SpeedMPH,Gust SpeedMPH,PrecipitationIn,Events,Conditions,WindDirDegrees,DateUTC
12:53 AM,37.9,34.0,86,30.17,10.0,Calm,Calm,-,0.01,Rain,Light Rain,0,2013-01-06 05:53:00
1:53 AM,37.9,33.1,83,30.19,10.0,Calm,Calm,-,0.00,Rain,Light Rain,0,2013-01-06 06:53:00
2:53 AM,39.0,32.0,76,30.16,10.0,South,3.5,-,0.00,,Overcast,190,2013-01-06 07:53:00
3:53 AM,39.0,32.0,76,30.14,10.0,Calm,Calm,-,0.00,,Overcast,0,2013-01-06 08:53:00
4:53 AM,37.0,34.0,89,30.12,10.0,Calm,Calm,-,N/A,,Scattered Clouds,0,2013-01-06 09:53:00
5:53 AM,37.0,34.0,89,30.12,10.0,Calm,Calm,-,N/A,,Clear,0,2013-01-06 10:53:00
6:53 AM,37.9,35.1,89,30.13,9.0,Calm,Calm,-,N/A,,Overcast,0,2013-01-06 11:53:00
7:53 AM,37.9,35.1,89,30.13,9.0,Calm,Calm,-,N/A,,Overcast,0,2013-01-06 12:53:00
8:53 AM,37.9,35.1,89,30.14,5.0,Calm,Calm,-,N/A,,Clear,0,2013-01-06 13:53:00
9:53 AM,39.9,34.0,79,30.14,10.0,Calm,Calm,-,N/A,,Overcast,0,2013-01-06 14:53:00
10:53 AM,43.0,33.1,68,30.14,10.0,Calm,Calm,-,N/A,,Clear,0,2013-01-06 15:53:00
11:53 AM,46.9,34.0,61,30.10,10.0,Calm,Calm,-,N/A,,Clear,0,2013-01-06 16:53:00
12:53 PM,50.0,33.1,52,30.06,10.0,Calm,Calm,-,N/A,,Clear,0,2013-01-06 17:53:00
1:53 PM,53.1,34.0,48,30.02,10.0,Variable,3.5,-,N/A,,Clear,0,2013-01-06 18:53:00
2:53 PM,54.0,35.1,49,30.00,10.0,Variable,3.5,-,N/A,,Clear,0,2013-01-06 19:53:00
3:53 PM,54.0,36.0,51,30.01,10.0,Variable,3.5,-,N/A,,Clear,0,2013-01-06 20:53:00
4:53 PM,52.0,36.0,54,30.02,10.0,Variable,3.5,-,N/A,,Clear,0,2013-01-06 21:53:00
5:53 PM,48.0,37.0,66,30.04,10.0,Calm,Calm,-,N/A,,Mostly Cloudy,0,2013-01-06 22:53:00
6:53 PM,45.0,34.0,65,30.08,10.0,North,4.6,-,N/A,,Scattered Clouds,360,2013-01-06 23:53:00
7:53 PM,43.0,28.9,58,30.12,10.0,NNW,6.9,-,N/A,,Scattered Clouds,340,2013-01-07 00:53:00
8:53 PM,41.0,27.0,57,30.13,10.0,NNW,4.6,-,N/A,,Clear,330,2013-01-07 01:53:00
9:53 PM,41.0,26.1,55,30.14,10.0,NNW,5.8,-,N/A,,Clear,330,2013-01-07 02:53:00
10:53 PM,41.0,26.1,55,30.15,10.0,NNW,5.8,-,N/A,,Partly Cloudy,330,2013-01-07 03:53:00
11:53 PM,41.0,26.1,55,30.17,10.0,NNW,8.1,-,N/A,,Clear,340,2013-01-07 04:53:00